LZB5228 LQMO-LBSF

Flight info

Callsign LZB5228
Flight time 0h 50m
Altitude 35000
Route GEBNI DCT UDVAR DCT NISVA
Aircraft A320/M-SDE3FGHIRWY/LB1

Departure

Time 2026-04-20 12:07
Airport Mostar International Airport (LQMO)

Arrival

Time 2026-04-20 12:57
Airport Sofia Airport (LBSF)
Time Latitude Longitude Altitude Speed Heading
2026-04-20 11:52 43.28982 17.83745 179 ft 0 kts 21°
2026-04-20 12:01 43.29025 17.83760 179 ft 16 kts
2026-04-20 12:02 43.29140 17.83784 179 ft 16 kts 341°
2026-04-20 12:02 43.29205 17.83767 180 ft 6 kts 33°
2026-04-20 12:02 43.29235 17.83829 181 ft 13 kts 72°
2026-04-20 12:02 43.29252 17.83898 181 ft 0 kts 71°
2026-04-20 12:03 43.29273 17.83989 182 ft 10 kts 74°
2026-04-20 12:04 43.29257 17.84045 182 ft 6 kts 144°
2026-04-20 12:04 43.29239 17.84056 182 ft 0 kts 158°
2026-04-20 12:06 43.29103 17.84131 181 ft 64 kts 158°
2026-04-20 12:06 43.28410 17.84519 177 ft 148 kts 158°
2026-04-20 12:07 43.27379 17.85088 841 ft 164 kts 158°
2026-04-20 12:07 43.26282 17.85667 1770 ft 173 kts 160°
2026-04-20 12:07 43.25046 17.85935 2600 ft 186 kts 185°
2026-04-20 12:07 43.23766 17.85504 3153 ft 199 kts 207°
2026-04-20 12:08 43.22618 17.84281 3506 ft 222 kts 232°
2026-04-20 12:08 43.21857 17.82356 4116 ft 236 kts 246°
2026-04-20 12:08 43.21176 17.80272 5016 ft 241 kts 245°
2026-04-20 12:08 43.20482 17.78196 5935 ft 244 kts 245°
2026-04-20 12:09 43.19766 17.76073 6852 ft 246 kts 246°
2026-04-20 12:09 43.19042 17.73932 7731 ft 249 kts 247°
2026-04-20 12:09 43.18310 17.71764 8610 ft 252 kts 247°
2026-04-20 12:09 43.17760 17.69485 9524 ft 252 kts 265°
2026-04-20 12:10 43.17871 17.67103 10375 ft 252 kts 287°
2026-04-20 12:10 43.18674 17.64939 10939 ft 267 kts 310°
2026-04-20 12:10 43.20156 17.63272 11372 ft 287 kts 323°
2026-04-20 12:10 43.21868 17.61657 11647 ft 311 kts 323°
2026-04-20 12:11 43.23720 17.59920 11943 ft 331 kts 323°
2026-04-20 12:11 43.25648 17.58110 12573 ft 339 kts 323°
2026-04-20 12:11 43.27660 17.56380 13316 ft 345 kts 333°
2026-04-20 12:11 43.30007 17.55727 14004 ft 358 kts 358°
2026-04-20 12:12 43.32451 17.56593 14658 ft 373 kts 23°
2026-04-20 12:12 43.34522 17.58798 14932 ft 383 kts 43°
2026-04-20 12:12 43.36174 17.61709 14987 ft 387 kts 53°
2026-04-20 12:12 43.37552 17.64905 15279 ft 393 kts 58°
2026-04-20 12:13 43.38809 17.68265 15998 ft 397 kts 63°
2026-04-20 12:13 43.39550 17.71963 16655 ft 407 kts 81°
2026-04-20 12:13 43.39513 17.75885 17298 ft 414 kts 92°
2026-04-20 12:13 43.39284 17.79843 17934 ft 417 kts 92°
2026-04-20 12:14 43.39033 17.83852 18496 ft 421 kts 93°
2026-04-20 12:14 43.38773 17.87840 18981 ft 425 kts 93°
2026-04-20 12:14 43.38505 17.91917 19509 ft 429 kts 93°
2026-04-20 12:14 43.38237 17.96027 20048 ft 433 kts 94°
2026-04-20 12:15 43.37968 18.00177 20547 ft 437 kts 93°
2026-04-20 12:15 43.37704 18.04311 21039 ft 441 kts 93°
2026-04-20 12:15 43.37436 18.08547 21494 ft 445 kts 93°
2026-04-20 12:15 43.37166 18.12806 21964 ft 449 kts 93°
2026-04-20 12:16 43.36891 18.17097 22445 ft 453 kts 93°
2026-04-20 12:16 43.36609 18.21445 22905 ft 456 kts 93°
2026-04-20 12:16 43.36326 18.25758 23336 ft 460 kts 93°
2026-04-20 12:16 43.36034 18.30166 23745 ft 464 kts 93°
2026-04-20 12:17 43.35739 18.34601 24137 ft 466 kts 93°
2026-04-20 12:17 43.35440 18.39059 24511 ft 469 kts 93°
2026-04-20 12:17 43.35145 18.43476 24904 ft 471 kts 93°
2026-04-20 12:17 43.34842 18.47982 25278 ft 474 kts 93°
2026-04-20 12:18 43.34534 18.52508 25672 ft 476 kts 93°
2026-04-20 12:18 43.34225 18.57052 26048 ft 479 kts 93°
2026-04-20 12:18 43.33910 18.61620 26432 ft 481 kts 93°
2026-04-20 12:18 43.33590 18.66213 26804 ft 483 kts 93°
2026-04-20 12:19 43.33266 18.70833 27131 ft 486 kts 93°
2026-04-20 12:19 43.32941 18.75466 27534 ft 488 kts 93°
2026-04-20 12:19 43.32621 18.80043 27888 ft 490 kts 92°
2026-04-20 12:19 43.32294 18.84726 28232 ft 492 kts 92°
2026-04-20 12:20 43.31965 18.89427 28593 ft 494 kts 92°
2026-04-20 12:20 43.31632 18.94114 28920 ft 496 kts 93°
2026-04-20 12:20 43.31290 18.98853 29231 ft 498 kts 92°
2026-04-20 12:20 43.30943 19.03600 29539 ft 500 kts 92°
2026-04-20 12:21 43.30597 19.08314 29873 ft 502 kts 92°
2026-04-20 12:21 43.30246 19.13081 30276 ft 501 kts 92°
2026-04-20 12:21 43.29894 19.17844 30658 ft 500 kts 92°
2026-04-20 12:21 43.29542 19.22594 31031 ft 499 kts 92°
2026-04-20 12:22 43.29187 19.27341 31406 ft 498 kts 92°
2026-04-20 12:22 43.28835 19.32003 31767 ft 497 kts 92°
2026-04-20 12:22 43.28477 19.36720 32144 ft 496 kts 92°
2026-04-20 12:22 43.28119 19.41428 32522 ft 495 kts 92°
2026-04-20 12:23 43.27759 19.46133 32914 ft 494 kts 92°
2026-04-20 12:23 43.27401 19.50811 33294 ft 493 kts 92°
2026-04-20 12:23 43.27040 19.55487 33668 ft 492 kts 92°
2026-04-20 12:23 43.26678 19.60159 34042 ft 491 kts 91°
2026-04-20 12:24 43.26314 19.64821 34358 ft 490 kts 92°
2026-04-20 12:24 43.25950 19.69475 34635 ft 490 kts 92°
2026-04-20 12:24 43.25592 19.74082 34903 ft 491 kts 92°
2026-04-20 12:24 43.25225 19.78755 34979 ft 491 kts 92°
2026-04-20 12:25 43.24480 19.88073 34986 ft 491 kts 92°
2026-04-20 12:25 43.23726 19.97394 34989 ft 491 kts 92°
2026-04-20 12:26 43.22975 20.06650 35000 ft 491 kts 92°
2026-04-20 12:26 43.22209 20.15966 34998 ft 491 kts 93°
2026-04-20 12:27 43.21439 20.25268 34998 ft 491 kts 93°
2026-04-20 12:27 43.20666 20.34531 35001 ft 491 kts 93°
2026-04-20 12:28 43.19869 20.43841 34998 ft 491 kts 93°
2026-04-20 12:28 43.19067 20.53146 35002 ft 491 kts 93°
2026-04-20 12:29 43.18269 20.62457 35005 ft 491 kts 93°
2026-04-20 12:29 43.17464 20.71703 35007 ft 491 kts 93°
2026-04-20 12:30 43.16642 20.80989 35013 ft 490 kts 94°
2026-04-20 12:30 43.15809 20.90271 35018 ft 490 kts 94°
2026-04-20 12:31 43.14986 20.99487 35017 ft 490 kts 94°
2026-04-20 12:31 43.14155 21.08764 35021 ft 490 kts 94°
2026-04-20 12:32 43.13307 21.18035 35020 ft 490 kts 94°
2026-04-20 12:32 43.12448 21.27312 35023 ft 490 kts 94°
2026-04-20 12:33 43.11590 21.36520 35019 ft 490 kts 95°
2026-04-20 12:33 43.10721 21.45774 35022 ft 490 kts 95°
2026-04-20 12:34 43.09847 21.54997 34675 ft 491 kts 95°
2026-04-20 12:34 43.09403 21.59699 33380 ft 503 kts 95°
2026-04-20 12:34 43.08949 21.64485 32371 ft 506 kts 95°
2026-04-20 12:35 43.08489 21.69294 31253 ft 512 kts 95°
2026-04-20 12:35 43.08022 21.74111 30459 ft 510 kts 96°
2026-04-20 12:35 43.07551 21.78932 29361 ft 512 kts 96°
2026-04-20 12:35 43.07083 21.83708 28297 ft 513 kts 96°
2026-04-20 12:36 43.06608 21.88548 27371 ft 510 kts 96°
2026-04-20 12:36 43.06133 21.93345 26462 ft 507 kts 97°
2026-04-20 12:36 43.05660 21.98113 25668 ft 501 kts 97°
2026-04-20 12:36 43.05196 22.02812 24920 ft 495 kts 97°
2026-04-20 12:37 43.04743 22.07382 24210 ft 489 kts 97°
2026-04-20 12:37 43.04284 22.11986 23476 ft 484 kts 97°
2026-04-20 12:37 43.03829 22.16515 22687 ft 479 kts 97°
2026-04-20 12:37 43.03376 22.20998 21952 ft 473 kts 98°
2026-04-20 12:38 43.02927 22.25437 21274 ft 467 kts 97°
2026-04-20 12:38 43.02488 22.29775 20206 ft 455 kts 98°
2026-04-20 12:38 43.02055 22.34040 19652 ft 449 kts 98°
2026-04-20 12:38 43.01623 22.38246 19081 ft 443 kts 98°
2026-04-20 12:39 43.00768 22.46491 17925 ft 434 kts 98°
2026-04-20 12:39 43.00348 22.50543 17375 ft 428 kts 98°
2026-04-20 12:39 42.99934 22.54543 16818 ft 422 kts 98°
2026-04-20 12:40 42.99528 22.58457 16252 ft 418 kts 98°
2026-04-20 12:40 42.99121 22.62361 15684 ft 413 kts 98°
2026-04-20 12:40 42.98712 22.66246 15105 ft 411 kts 98°
2026-04-20 12:40 42.98300 22.70107 14511 ft 409 kts 98°
2026-04-20 12:41 42.97891 22.73933 13922 ft 407 kts 98°
2026-04-20 12:41 42.97477 22.77757 13264 ft 404 kts 100°
2026-04-20 12:41 42.97052 22.80218 13053 ft 397 kts 108°
2026-04-20 12:41 42.95764 22.84793 12959 ft 385 kts 113°
2026-04-20 12:42 42.95086 22.87086 12628 ft 386 kts 113°
2026-04-20 12:42 42.94105 22.90426 12476 ft 382 kts 113°
2026-04-20 12:42 42.93121 22.93784 12384 ft 381 kts 113°
2026-04-20 12:42 42.92134 22.97142 12248 ft 380 kts 113°
2026-04-20 12:43 42.91145 23.00492 12108 ft 379 kts 113°
2026-04-20 12:43 42.90155 23.03825 11704 ft 377 kts 114°
2026-04-20 12:43 42.89170 23.07122 11172 ft 374 kts 114°
2026-04-20 12:43 42.88194 23.10389 10639 ft 370 kts 114°
2026-04-20 12:44 42.87226 23.13624 10132 ft 367 kts 114°
2026-04-20 12:44 42.86289 23.16758 9590 ft 353 kts 114°
2026-04-20 12:44 42.85382 23.19787 9042 ft 337 kts 114°
2026-04-20 12:44 42.84516 23.22685 8496 ft 324 kts 114°
2026-04-20 12:45 42.83673 23.25496 7954 ft 314 kts 114°
2026-04-20 12:45 42.82870 23.28164 7873 ft 298 kts 114°
2026-04-20 12:45 42.82097 23.30733 7665 ft 288 kts 114°
2026-04-20 12:45 42.81352 23.33214 7374 ft 286 kts 113°
2026-04-20 12:46 42.80604 23.35705 7069 ft 282 kts 113°
2026-04-20 12:46 42.79861 23.38172 6780 ft 280 kts 113°
2026-04-20 12:46 42.79128 23.40599 6476 ft 271 kts 113°
2026-04-20 12:46 42.78424 23.42927 6177 ft 262 kts 112°
2026-04-20 12:47 42.77730 23.45213 5867 ft 260 kts 112°
2026-04-20 12:47 42.77040 23.47481 5565 ft 259 kts 112°
2026-04-20 12:47 42.76359 23.49727 5252 ft 252 kts 112°
2026-04-20 12:47 42.75693 23.51927 4957 ft 249 kts 112°
2026-04-20 12:48 42.75045 23.54065 4656 ft 246 kts 112°
2026-04-20 12:48 42.74404 23.56176 4480 ft 235 kts 112°
2026-04-20 12:48 42.73793 23.58194 4332 ft 228 kts 112°
2026-04-20 12:48 42.73116 23.60142 4124 ft 228 kts 128°
2026-04-20 12:49 42.71896 23.61423 3911 ft 218 kts 164°
2026-04-20 12:49 42.70436 23.61527 3716 ft 208 kts 201°
2026-04-20 12:49 42.69260 23.60547 3597 ft 196 kts 234°
2026-04-20 12:49 42.68678 23.58939 3577 ft 188 kts 264°
2026-04-20 12:50 42.68701 23.57180 3601 ft 187 kts 275°
2026-04-20 12:50 42.68811 23.55411 3414 ft 188 kts 276°
2026-04-20 12:50 42.68919 23.53657 3176 ft 182 kts 277°
2026-04-20 12:50 42.69018 23.52012 2954 ft 164 kts 277°
2026-04-20 12:51 42.69108 23.50545 2732 ft 150 kts 277°
2026-04-20 12:51 42.69191 23.49185 2515 ft 140 kts 276°
2026-04-20 12:51 42.69271 23.47882 2339 ft 136 kts 278°
2026-04-20 12:51 42.69343 23.46613 2143 ft 133 kts 276°
2026-04-20 12:52 42.69425 23.45348 2024 ft 136 kts 276°
2026-04-20 12:52 42.69499 23.44072 1829 ft 135 kts 277°
2026-04-20 12:52 42.69578 23.42862 1763 ft 116 kts 277°
2026-04-20 12:52 42.69646 23.41750 2196 ft 132 kts 275°
2026-04-20 12:53 42.70081 23.40492 2742 ft 165 kts 322°
2026-04-20 12:53 42.71291 23.40103 3247 ft 212 kts
2026-04-20 12:53 42.72644 23.41210 3519 ft 254 kts 49°
2026-04-20 12:53 42.73241 23.43499 3493 ft 256 kts 90°
2026-04-20 12:54 42.73002 23.45796 3522 ft 239 kts 99°
2026-04-20 12:54 42.72672 23.48002 3375 ft 236 kts 100°
2026-04-20 12:54 42.72381 23.50164 3158 ft 226 kts 97°
2026-04-20 12:54 42.72054 23.52184 3212 ft 216 kts 116°
2026-04-20 12:55 42.71028 23.53335 3388 ft 181 kts 179°
2026-04-20 12:55 42.69994 23.52817 3354 ft 150 kts 234°
2026-04-20 12:55 42.69537 23.51606 3037 ft 140 kts 250°
2026-04-20 12:55 42.69253 23.50360 2850 ft 136 kts 262°
2026-04-20 12:56 42.69210 23.49085 2631 ft 135 kts 275°
2026-04-20 12:56 42.69269 23.47806 2386 ft 134 kts 278°
2026-04-20 12:56 42.69334 23.46554 2144 ft 131 kts 277°
2026-04-20 12:56 42.69427 23.45302 2023 ft 135 kts 277°
2026-04-20 12:57 42.69506 23.44024 1805 ft 135 kts 277°
2026-04-20 12:57 42.69580 23.42840 1743 ft 106 kts 275°
2026-04-20 12:57 42.69629 23.42048 1750 ft 58 kts 274°
2026-04-20 12:57 42.69616 23.41668 1748 ft 30 kts 255°
2026-04-20 12:58 42.69540 23.41428 1747 ft 26 kts 246°
2026-04-20 12:58 42.69465 23.41221 1743 ft 18 kts 215°
2026-04-20 12:58 42.69369 23.41188 1750 ft 14 kts 194°
2026-04-20 12:58 42.69237 23.41149 1750 ft 22 kts 192°
2026-04-20 12:59 42.69122 23.41052 1745 ft 19 kts 250°
2026-04-20 12:59 42.69053 23.40982 1745 ft 10 kts 157°
2026-04-20 12:59 42.69009 23.41003 1748 ft 0 kts 161°